AirNav   Pilot Hours Calculator
 
 1032 users online  

GA61 Kenley Field Airport
Brooks, Georgia, USA

GOING TO BROOKS?


FAA INFORMATION EFFECTIVE 02 JANUARY 2020

Location

FAA Identifier: GA61
Lat/Long: 33-16-08.4310N 084-29-49.7330W
33-16.140517N 084-29.828883W
33.2690086,-84.4971481
(estimated)
Elevation: 780 ft. / 238 m (estimated)
Variation: 02W (1985)
From city: 3 miles SW of BROOKS, GA
Time zone: UTC -5 (UTC -4 during Daylight Saving Time)
Zip code: 30205

Airport Operations

Airport use: Private use. Permission required prior to landing
Activation date: 06/1971
Control tower: no
ARTCC: ATLANTA CENTER
FSS: MACON FLIGHT SERVICE STATION
Attendance: UNATNDD
Wind indicator: yes
Segmented circle: no

Airport Communications

UNICOM: 122.8
WX ASOS at FFC (7 nm NW): 118.525 (770-487-1610)
WX AWOS-3 at HMP (11 nm NE): 124.825 (770-707-1719)
WX AWOS-3 at 6A2 (11 nm E): 119.750 (770-227-3934)
WX AWOS-3PT at CCO (14 nm W): 118.975 (770-254-1617)

Nearby radio navigation aids

VOR radial/distance  VOR name  Freq  Var
ATLr193/21.8ATLANTA VORTAC116.9005W
PDKr200/37.7PEACHTREE VOR/DME116.6005W
LGCr069/38.0LAGRANGE VORTAC115.6001E

 
NDB name  Hdg/Dist  Freq  Var  ID
PECAT201/2.031605WFFC ..-. ..-. -.-.
COWETA COUNTY089/10.923403WEQQ . --.- --.-
PINE MOUNTAIN039/31.827203WPIM .--. .. --
CARROLLTON123/36.427804WGPQ --. .--. --.-

Airport Services

Airframe service: NONE
Powerplant service: NONE

Runway Information

Runway NE/SW

Dimensions: 2400 x 100 ft. / 732 x 30 m
Surface: turf
RUNWAY NE  RUNWAY SW
Traffic pattern: leftleft
Obstructions: trees, 700 ft. from runwaytrees, 1500 ft. from runway

Airport Ownership and Management from official FAA records

Ownership: Privately-owned
Owner: KENLEY PARK PROP OWNERS ASSN
125 KENLEY DR
BROOKS, GA 30205
Phone (404) 276-3924
Manager: CHAIRMAN - BOARD OF DIRECTORS
KENLEY PARK PROP OWNERS ASSN, 125 KENLEY DR
BROOKS, GA 30205
Phone (404) 276-3924

Airport Operational Statistics

Aircraft based on the field: 5
Single engine airplanes: 2
Multi engine airplanes: 3
    

Additional Remarks

FOR CD CTC ATLANTA APCH AT 678-364-6131.

Instrument Procedures

There are no published instrument procedures at GA61.

Some nearby airports with instrument procedures:

KFFC - Atlanta Regional Airport-Falcon Field (7 nm NW)
KHMP - Henry County Airport (11 nm NE)
6A2 - Griffin-Spalding County Airport (11 nm E)
KCCO - Newnan Coweta County Airport (14 nm W)
KOPN - Thomaston-Upson County Airport (22 nm SE)
 
Loc | Ops | Rwys | IFR | FBO | Links
Com | Nav | Svcs | Stats | Notes
Area around GA61 (Kenley Field Airport)
 
Road maps at: MapQuest Bing Google
 
Aerial photo
No photo
 
Sectional chart

 
Airport distance calculator
Flying to Kenley Field Airport? Find the distance to fly.

From to GA61

Sunrise and sunset
Times for 22-Jan-2020
 Local
(UTC-5)
 Zulu
(UTC)
Morning civil twilight07:1412:14
Sunrise07:4012:40
Sunset17:5922:59
Evening civil twilight18:2523:25

Current date and time
Zulu (UTC)  23-Jan-2020 02:43:55
Local (UTC-5)  22-Jan-2020 21:43:55
 
METAR
KFFC 
6nm NW 
230153Z AUTO 00000KT 10SM CLR 02/M06 A3030 RMK AO2 SLP269 T00221056
KHMP 
11nm NE 
230215Z AUTO 07005KT 10SM CLR 04/M08 A3033 RMK AO2 T00361081
K6A2 
11nm E 
230220Z AUTO 00000KT 10SM CLR 04/M10 A3029 RMK AO2
KCCO 
14nm W 
230215Z AUTO 10006KT 10SM CLR 07/M08 A3028 RMK AO2 T00691084
TAF
KATL 
22nm N 
230145Z 2302/2406 08008KT P6SM BKN200 FM231200 08008KT P6SM BKN080 BKN120 FM231500 09008KT P6SM SCT040 OVC060 PROB30 2315/2320 6SM -RA BKN040 FM232000 09008KT P6SM OVC040 FM240100 10010KT 6SM -RA BR OVC015 FM240300 10010KT 3SM -SHRA BR OVC006
NOTAMs
Click for the latest NOTAMs
NOTAMs are issued by the DoD/FAA and will open in a separate window not controlled by AirNav.

 

 
 

Would you like to see your business listed on this page?

 If your business provides an interesting product or service to pilots, flight crews, aircraft, or users of the Kenley Field Airport, you should consider listing it here.  To start the listing process, click on the button below
 
Add a business
 

Other Pages about Kenley Field Airport

Update a link
 
Copyright © AirNav, LLC. All rights reserved. Privacy Policy  Contact